ASA65 PAJN-PANC

Flight info

Callsign ASA65
Flight time N/A
Altitude 38000
Route ASORT2 ASORT YESKA TED
Aircraft B737/M-SDE2E3FGHIRWXY/LB1

Departure

Time 2026-04-14 21:33
Airport Juneau International Airport (PAJN)

Arrival

Time N/A
Airport Ted Stevens Anchorage International Airport (PANC)
Time Latitude Longitude Altitude Speed Heading
2026-04-14 21:16 58.35831 -134.58299 -20 ft 0 kts 359°
2026-04-14 21:24 58.35822 -134.58299 -21 ft 2 kts 359°
2026-04-14 21:25 58.35808 -134.58299 -22 ft 0 kts 359°
2026-04-14 21:25 58.35795 -134.58298 -22 ft 2 kts 343°
2026-04-14 21:25 58.35782 -134.58287 -22 ft 2 kts 327°
2026-04-14 21:25 58.35770 -134.58267 -22 ft 2 kts 308°
2026-04-14 21:26 58.35762 -134.58243 -22 ft 2 kts 291°
2026-04-14 21:26 58.35760 -134.58229 -22 ft 1 kts 281°
2026-04-14 21:26 58.35759 -134.58223 -21 ft 0 kts 283°
2026-04-14 21:28 58.35759 -134.58225 -21 ft 0 kts 283°
2026-04-14 21:28 58.35762 -134.58249 -21 ft 2 kts 278°
2026-04-14 21:28 58.35755 -134.58283 -21 ft 4 kts 216°
2026-04-14 21:28 58.35714 -134.58296 -21 ft 8 kts 159°
2026-04-14 21:29 58.35685 -134.58180 -21 ft 14 kts 104°
2026-04-14 21:29 58.35655 -134.57968 -21 ft 16 kts 104°
2026-04-14 21:29 58.35624 -134.57745 -22 ft 17 kts 105°
2026-04-14 21:29 58.35592 -134.57532 -23 ft 17 kts 106°
2026-04-14 21:30 58.35558 -134.57312 -24 ft 18 kts 103°
2026-04-14 21:30 58.35529 -134.57083 -25 ft 18 kts 104°
2026-04-14 21:30 58.35499 -134.56833 -26 ft 19 kts 103°
2026-04-14 21:30 58.35460 -134.56583 -28 ft 20 kts 103°
2026-04-14 21:31 58.35425 -134.56313 -30 ft 21 kts 104°
2026-04-14 21:31 58.35387 -134.56038 -32 ft 22 kts 104°
2026-04-14 21:31 58.35341 -134.55740 -36 ft 24 kts 107°
2026-04-14 21:31 58.35302 -134.55429 -38 ft 21 kts 106°
2026-04-14 21:32 58.35247 -134.55286 -38 ft 12 kts 177°
2026-04-14 21:32 58.35191 -134.55382 -38 ft 12 kts 259°
2026-04-14 21:32 58.35222 -134.55662 -36 ft 44 kts 285°
2026-04-14 21:32 58.35362 -134.56696 -26 ft 111 kts 284°
2026-04-14 21:33 58.35615 -134.58487 192 ft 146 kts 284°
2026-04-14 21:33 58.35918 -134.60448 799 ft 153 kts 285°
2026-04-14 21:33 58.35998 -134.62431 1542 ft 151 kts 270°
2026-04-14 21:33 58.35976 -134.64494 1962 ft 160 kts 274°
2026-04-14 21:34 58.35992 -134.66717 2370 ft 171 kts 274°
2026-04-14 21:34 58.35982 -134.69081 2770 ft 185 kts 272°
2026-04-14 21:34 58.35959 -134.71719 3140 ft 202 kts 273°
2026-04-14 21:34 58.35970 -134.74541 3534 ft 218 kts 274°
2026-04-14 21:35 58.35992 -134.77618 4031 ft 231 kts 274°
2026-04-14 21:35 58.36013 -134.80907 4476 ft 247 kts 274°
2026-04-14 21:35 58.36030 -134.84410 4935 ft 261 kts 273°
2026-04-14 21:35 58.36048 -134.87927 5533 ft 268 kts 273°
2026-04-14 21:36 58.36065 -134.91563 6205 ft 273 kts 273°
2026-04-14 21:36 58.36082 -134.95227 6929 ft 276 kts 273°
2026-04-14 21:36 58.36097 -134.98978 7642 ft 281 kts 273°
2026-04-14 21:36 58.36113 -135.02675 8333 ft 285 kts 273°
2026-04-14 21:37 58.36127 -135.06493 9053 ft 289 kts 273°
2026-04-14 21:37 58.36142 -135.10518 9788 ft 293 kts 273°
2026-04-14 21:37 58.36156 -135.14506 10437 ft 301 kts 273°
2026-04-14 21:37 58.36171 -135.18805 10947 ft 316 kts 273°
2026-04-14 21:38 58.36184 -135.23192 11398 ft 330 kts 272°
2026-04-14 21:38 58.36195 -135.27843 12102 ft 337 kts 272°
2026-04-14 21:38 58.36203 -135.32463 12912 ft 341 kts 272°
2026-04-14 21:38 58.36209 -135.37181 13717 ft 345 kts 272°
2026-04-14 21:39 58.36214 -135.41956 14551 ft 349 kts 272°
2026-04-14 21:39 58.36219 -135.46759 15372 ft 353 kts 273°
2026-04-14 21:39 58.36227 -135.51621 16180 ft 357 kts 273°
2026-04-14 21:39 58.36240 -135.56616 16994 ft 361 kts 273°
2026-04-14 21:40 58.36251 -135.61552 17756 ft 366 kts 273°
2026-04-14 21:40 58.36261 -135.66580 18511 ft 371 kts 272°
2026-04-14 21:40 58.36269 -135.71495 19207 ft 376 kts 272°
2026-04-14 21:40 58.36318 -135.76483 19890 ft 379 kts 275°
2026-04-14 21:41 58.36608 -135.81354 20506 ft 382 kts 284°
2026-04-14 21:41 58.37372 -135.86255 21204 ft 381 kts 294°
2026-04-14 21:41 58.38373 -135.90907 21852 ft 384 kts 297°
2026-04-14 21:41 58.39517 -135.95558 22492 ft 386 kts 301°
2026-04-14 21:42 58.40748 -136.00061 23078 ft 389 kts 302°
2026-04-14 21:42 58.42024 -136.04604 23666 ft 393 kts 302°
2026-04-14 21:42 58.43312 -136.09203 24242 ft 397 kts 302°
2026-04-14 21:42 58.44600 -136.13886 24764 ft 401 kts 302°
2026-04-14 21:43 58.45869 -136.18578 25225 ft 406 kts 301°
2026-04-14 21:43 58.47161 -136.23424 25723 ft 408 kts 301°
2026-04-14 21:43 58.48431 -136.28245 26142 ft 411 kts 301°
2026-04-14 21:43 58.49706 -136.33122 26573 ft 413 kts 301°
2026-04-14 21:44 58.50974 -136.38002 26950 ft 416 kts 301°
2026-04-14 21:44 58.52265 -136.42986 27348 ft 418 kts 301°
2026-04-14 21:44 58.53538 -136.47916 27742 ft 420 kts 301°
2026-04-14 21:44 58.54823 -136.52904 28088 ft 423 kts 301°
2026-04-14 21:45 58.56126 -136.57971 28446 ft 425 kts 301°
2026-04-14 21:45 58.57418 -136.63005 28790 ft 427 kts 301°
2026-04-14 21:45 58.58736 -136.68155 29151 ft 429 kts 300°
2026-04-14 21:45 58.60039 -136.73256 29465 ft 432 kts 300°
2026-04-14 21:46 58.61344 -136.78374 29790 ft 433 kts 300°
2026-04-14 21:46 58.62669 -136.83585 30094 ft 436 kts 300°
2026-04-14 21:46 58.63991 -136.88796 30418 ft 437 kts 300°
2026-04-14 21:46 58.65315 -136.94025 30680 ft 440 kts 300°
2026-04-14 21:47 58.66645 -136.99295 30955 ft 441 kts 300°
2026-04-14 21:47 58.67986 -137.04622 31251 ft 442 kts 300°
2026-04-14 21:47 58.69293 -137.09828 31586 ft 440 kts 299°
2026-04-14 21:47 58.70612 -137.15096 31955 ft 438 kts 299°
2026-04-14 21:48 58.71918 -137.20323 32325 ft 435 kts 299°
2026-04-14 21:48 58.73229 -137.25583 32655 ft 434 kts 299°
2026-04-14 21:48 58.74527 -137.30798 32957 ft 434 kts 299°
2026-04-14 21:48 58.75816 -137.35989 33261 ft 433 kts 298°
2026-04-14 21:49 58.77067 -137.41038 33674 ft 430 kts 298°
2026-04-14 21:49 58.78349 -137.46225 34002 ft 430 kts 299°
2026-04-14 21:49 58.79631 -137.51419 34332 ft 429 kts 298°
2026-04-14 21:49 58.80902 -137.56586 34669 ft 428 kts 298°
2026-04-14 21:50 58.82164 -137.61726 34973 ft 428 kts 298°
2026-04-14 21:50 58.83423 -137.66864 35278 ft 427 kts 298°
2026-04-14 21:50 58.84687 -137.72038 35524 ft 428 kts 298°
2026-04-14 21:50 58.85945 -137.77199 35789 ft 428 kts 298°
2026-04-14 21:51 58.87205 -137.82379 36087 ft 427 kts 298°
2026-04-14 21:51 58.88464 -137.87572 36375 ft 426 kts 298°
2026-04-14 21:51 58.89705 -137.92697 36598 ft 427 kts 298°
2026-04-14 21:51 58.90962 -137.97899 36761 ft 429 kts 298°
2026-04-14 21:52 58.92220 -138.03119 36938 ft 431 kts 298°
2026-04-14 21:52 58.93473 -138.08336 37178 ft 431 kts 298°
2026-04-14 21:52 58.94732 -138.13586 37426 ft 430 kts 298°
2026-04-14 21:52 58.95974 -138.18782 37706 ft 428 kts 298°
2026-04-14 21:53 58.98473 -138.29265 37779 ft 433 kts 298°
2026-04-14 21:53 59.00900 -138.39505 37783 ft 429 kts 298°
2026-04-14 21:54 59.05362 -138.58460 37785 ft 429 kts 298°